アトラス彗星

C/2019 F2 ( ATLAS )

English version
Home page
Updated on March 26, 2020

---------------------------------------------------------------------

・ プロフィール

発見日 2019年3月26日
発見光度 17.5等
発見者 Asteroid Terrestrial-Impact Last Alert System (ATLAS) search program

・ 写真集

・ 軌道要素

Epoch 2019 Aug. 25.0 TT = JDT 2458720.5
T 2019 Sept. 8.90117 TT                                 Rudenko
q   2.2328605            (2000.0)            P               Q
n   0.01464481     Peri.   10.95771     -0.99215244     +0.12276998
a  16.5455154      Node   175.86739     -0.12422045     -0.98942401
e   0.8650474      Incl.   19.18909     +0.01424137     -0.07725069
P  67.3
From 610 observations 2019 Feb. 26-2020 Mar. 19, mean residual 0".5.

・ 星図

・ 光度変化

        m1 = 8.2 + 5 logΔ + 15.0 log r(t + 20)

---------------------------------------------------------------------

軌道要素はM.P.E.C. 2020-F67に掲載されたものです。
星図はステラナビゲータ Ver.10 (アストロアーツ) で作成したものです。
光度グラフはComet for Windowsで作成したものです。

---------------------------------------------------------------------

Copyright(C) Seiichi Yoshida (comet@aerith.net). All rights reserved.